Location: Recife
(8.0585°S, 34.8848°W)
Time: 11:14:16
(UTC-03:00)

Transit 2A - Pass Details

Date: 16 April 2026
Orbit: 594 x 950 km, 66.7° (Epoch: 14 May)

Event Time Altitude Azimuth Distance (km) Brightness Sun altitude
Rises 19:18:26 0° 182° (S) 3,403 - -30.6°
Reaches altitude 10° 19:21:08 10° 171° (S) 2,517 - -31.3°
Maximum altitude 19:26:13 30° 111° (ESE) 1,576 - -32.5°
Drops below altitude 10° 19:31:32 10° 52° (NE) 2,642 - -33.8°
Sets 19:34:25 0° 41° (NE) 3,599 - -34.5°
